Date String (YYYY-MM-DD hh:mm:ss) UTC,Instrument flags,Ambient pressure (hPa),Sample flow (lpm),Bypass flow (lpm),Sample temperature (°C),Ambient temperature (°C),ASC tube jacket temperature (°C),LED temperature (°C),Box temperature (°C),Sample RH (%),Span deviation,Mass concentration (μg/m³),Mass concentration (μg/m³),Mass concentration (μg/m³)
DateTimeUTC,F1_M11,P_M11,Q1_M11,Q2_M11,T1_M11,T2_M11,T3_M11,T4_M11,T5_M11,U1_M11,ZSPAN_M11,X0_M11,X2_M11,X1_M11
2022-11-13 00:00:00,,0825.0,4.99,0.00,25.7,24.2,00.0,34.5,27.6,07.0,0004.3,0013.03,0007.63,0006.97
2022-11-13 00:01:00,,0825.0,5.01,0.00,25.7,24.2,00.0,34.5,27.6,07.0,0004.7,0012.72,0007.60,0006.94
2022-11-13 00:02:00,,0824.9,5.00,0.00,25.7,24.2,00.0,34.5,27.6,06.9,0005.1,0012.60,0007.58,0006.91
2022-11-13 00:03:00,,0824.9,5.00,0.00,25.7,24.2,00.0,34.5,27.6,06.9,0005.6,0012.25,0007.55,0006.89
2022-11-13 00:04:00,,0825.0,5.00,0.00,25.7,24.2,00.0,34.5,27.5,06.9,0005.1,0012.14,0007.52,0006.88
2022-11-13 00:05:00,,0825.0,5.00,0.00,25.7,24.1,00.0,34.5,27.5,06.9,0004.1,0012.31,0007.48,0006.84
2022-11-13 00:06:00,,0824.9,5.00,0.00,25.7,24.2,00.0,34.5,27.6,06.9,0003.2,0012.25,0007.46,0006.82
2022-11-13 00:07:00,,0824.9,4.99,0.00,25.7,24.1,00.0,34.5,27.5,06.8,0003.3,0012.33,0007.44,0006.81
2022-11-13 00:08:00,,0824.9,5.00,0.00,25.7,24.1,00.0,34.5,27.5,06.8,0003.1,0012.59,0007.44,0006.80
2022-11-13 00:09:00,,0824.9,5.01,0.00,25.7,24.1,00.0,34.5,27.5,06.8,0003.4,0013.61,0007.46,0006.79
2022-11-13 00:10:00,,0825.0,5.00,0.00,25.7,24.1,00.0,34.5,27.5,06.8,0003.1,0013.20,0007.48,0006.80
2022-11-13 00:11:00,,0824.9,5.00,0.00,25.7,24.1,00.0,34.5,27.5,06.8,0002.8,0013.29,0007.49,0006.81
2022-11-13 00:12:00,,0824.9,5.00,0.00,25.7,24.1,00.0,34.5,27.5,06.8,0003.2,0013.65,0007.48,0006.83
2022-11-13 00:13:00,,0824.9,5.01,0.00,25.7,24.1,00.0,34.4,27.5,06.8,0003.2,0014.10,0007.48,0006.84
2022-11-13 00:14:00,,0824.9,4.99,0.00,25.7,24.1,00.0,34.4,27.5,06.8,0002.7,0014.11,0007.48,0006.84
2022-11-13 00:15:00,,0824.9,5.01,0.00,25.6,24.1,00.0,34.4,27.5,06.8,0002.1,0014.50,0007.52,0006.82
2022-11-13 00:16:00,,0824.9,5.00,0.00,25.6,24.0,00.0,34.4,27.5,06.8,0002.2,0014.68,0007.56,0006.83
2022-11-13 00:17:00,,0824.9,4.99,0.00,25.6,24.0,00.0,34.4,27.5,06.8,0002.1,0014.83,0007.59,0006.83
2022-11-13 00:18:00,,0824.9,5.01,0.00,25.6,24.0,00.0,34.4,27.5,06.8,0001.8,0014.96,0007.63,0006.83
2022-11-13 00:19:00,,0824.9,5.00,0.00,25.6,24.0,00.0,34.4,27.5,06.8,0001.6,0014.83,0007.64,0006.81
2022-11-13 00:20:00,,0824.9,4.99,0.00,25.6,24.0,00.0,34.4,27.4,06.8,0000.6,0014.04,0007.65,0006.81
2022-11-13 00:21:00,,0824.9,5.00,0.00,25.6,24.0,00.0,34.4,27.4,06.8,0000.3,0013.98,0007.64,0006.80
2022-11-13 00:22:00,,0824.9,5.00,0.00,25.6,24.0,00.0,34.4,27.4,06.8,0000.7,0014.33,0007.63,0006.77
2022-11-13 00:23:00,,0824.9,5.01,0.00,25.6,24.0,00.0,34.4,27.4,06.8,0006.0,0014.51,0007.62,0006.74
2022-11-13 00:24:00,,0824.9,5.00,0.00,25.6,24.0,00.0,34.4,27.4,06.8,0010.2,0014.15,0007.56,0006.70
2022-11-13 00:25:00,,0824.9,5.00,0.00,25.6,24.0,00.0,34.4,27.4,06.8,-002.4,0014.18,0007.54,0006.68
2022-11-13 00:26:00,,0824.9,5.00,0.00,25.6,23.9,00.0,34.4,27.4,06.8,0009.0,0014.30,0007.52,0006.67
2022-11-13 00:27:00,,0824.8,5.00,0.00,25.5,23.9,00.0,34.4,27.4,06.8,0009.0,0013.93,0007.48,0006.66
2022-11-13 00:28:00,,0824.8,4.99,0.00,25.5,23.9,00.0,34.4,27.3,06.8,-001.0,0014.10,0007.47,0006.65
2022-11-13 00:29:00,,0824.8,5.00,0.00,25.5,23.9,00.0,34.4,27.3,06.8,-000.3,0014.33,0007.41,0006.62
2022-11-13 00:30:00,,0824.8,5.00,0.00,25.5,23.9,00.0,34.4,27.3,06.8,0000.3,0014.19,0007.37,0006.59
2022-11-13 00:31:00,,0824.9,5.00,0.00,25.5,23.9,00.0,34.3,27.3,06.9,0001.0,0013.84,0007.29,0006.56
2022-11-13 00:32:00,,0824.9,5.00,0.00,25.5,23.8,00.0,34.3,27.3,07.1,0000.7,0013.98,0007.30,0006.56
2022-11-13 00:33:00,,0824.9,5.00,0.00,25.5,23.8,00.0,34.3,27.3,07.0,0000.1,0013.92,0007.31,0006.57
2022-11-13 00:34:00,,0824.9,5.00,0.00,25.4,23.8,00.0,34.3,27.3,07.0,0001.2,0013.62,0007.27,0006.59
2022-11-13 00:35:00,,0824.9,5.00,0.00,25.4,23.8,00.0,34.3,27.2,07.1,0001.5,0013.27,0007.31,0006.61
2022-11-13 00:36:00,,0824.9,5.00,0.00,25.4,23.7,00.0,34.3,27.2,07.3,0001.9,0013.55,0007.35,0006.63
2022-11-13 00:37:00,,0824.9,5.01,0.00,25.4,23.7,00.0,34.3,27.2,07.4,0002.5,0013.78,0007.37,0006.64
2022-11-13 00:38:00,,0824.9,5.00,0.00,25.4,23.7,00.0,34.3,27.2,07.4,0002.7,0014.25,0007.39,0006.67
2022-11-13 00:39:00,,0824.9,4.99,0.00,25.4,23.7,00.0,34.3,27.2,07.4,0002.7,0014.36,0007.42,0006.69
2022-11-13 00:40:00,,0824.9,5.00,0.00,25.3,23.7,00.0,34.3,27.2,07.4,0002.5,0013.99,0007.43,0006.70
2022-11-13 00:41:00,,0824.9,5.00,0.00,25.3,23.6,00.0,34.2,27.1,07.3,0002.1,0014.18,0007.50,0006.74
2022-11-13 00:42:00,,0824.9,5.00,0.00,25.3,23.6,00.0,34.2,27.1,07.4,0001.7,0014.32,0007.57,0006.77
2022-11-13 00:43:00,,0824.9,5.01,0.00,25.3,23.6,00.0,34.2,27.1,07.5,0001.2,0014.14,0007.57,0006.78
2022-11-13 00:44:00,,0824.9,5.00,0.00,25.3,23.6,00.0,34.2,27.1,07.5,0001.3,0013.91,0007.56,0006.78
2022-11-13 00:45:00,,0824.8,4.99,0.00,25.3,23.6,00.0,34.2,27.1,07.5,0000.9,0014.03,0007.59,0006.80
2022-11-13 00:46:00,,0824.8,5.00,0.00,25.3,23.6,00.0,34.2,27.1,07.5,0001.3,0014.12,0007.62,0006.82
2022-11-13 00:47:00,,0824.8,5.01,0.00,25.3,23.6,00.0,34.2,27.1,07.5,0001.1,0014.83,0007.62,0006.83
2022-11-13 00:48:00,,0824.8,5.00,0.00,25.2,23.6,00.0,34.2,27.1,07.5,0000.3,0014.51,0007.68,0006.86
2022-11-13 00:49:00,,0824.8,5.00,0.00,25.2,23.6,00.0,34.1,27.1,07.5,0000.2,0014.16,0007.73,0006.88
2022-11-13 00:50:00,,0824.8,4.99,0.00,25.2,23.6,00.0,34.1,27.0,07.5,-000.2,0013.89,0007.74,0006.89
2022-11-13 00:51:00,,0824.8,5.01,0.00,25.2,23.6,00.0,34.1,27.0,07.5,0000.4,0013.80,0007.76,0006.92
2022-11-13 00:52:00,,0824.8,5.00,0.00,25.2,23.6,00.0,34.1,27.0,07.5,0001.1,0014.02,0007.80,0006.95
2022-11-13 00:53:00,,0824.8,5.00,0.00,25.2,23.5,00.0,34.1,27.0,07.4,0001.3,0014.19,0007.84,0006.97
2022-11-13 00:54:00,,0824.8,5.00,0.00,25.2,23.5,00.0,34.1,27.0,07.4,0001.2,0014.45,0007.83,0006.98
2022-11-13 00:55:00,,0824.8,5.00,0.00,25.2,23.5,00.0,34.1,26.9,07.5,0001.1,0015.28,0007.86,0007.01
2022-11-13 00:56:00,,0824.8,4.99,0.00,25.2,23.5,00.0,34.1,26.9,07.5,0001.3,0016.07,0007.86,0007.00
2022-11-13 00:57:00,,0824.9,5.01,0.00,25.1,23.4,00.0,34.1,26.9,07.5,0001.5,0015.97,0007.84,0007.01
2022-11-13 00:58:00,,0824.8,5.01,0.00,25.1,23.5,00.0,34.0,26.9,07.5,0002.5,0015.19,0007.84,0007.03
2022-11-13 00:59:00,,0824.8,5.00,0.00,25.1,23.4,00.0,34.0,26.9,07.6,0003.2,0015.48,0007.82,0007.05
